WetterOnline ( https://www.wetteronline.de )

Wetter aktuell Gro��enaspe

Aktuelles Wetter: Quickborn (17m)

6-stündlich | Neueste Meldungen
Ortszeit Temperatur Wetter
Mo, 06.12. 7:00 -0.3° C Nebel
Mo, 06.12. 1:00 0.6° C bewölkt
So, 05.12. 19:00 0.6° C leichter Schneefall
So, 05.12. 13:00 1.6° C leichter Regen
So, 05.12. 7:00 0.9° C Sprühregen
So, 05.12. 1:00 0.4° C Schneefall
Sa, 04.12. 19:00 3.9° C bedeckt
Sa, 04.12. 13:00 4.1° C bedeckt
Ortszeit Temperatur Wetter
Mo, 06.12. 8:30 0.3° C leicht bewölkt
Mo, 06.12. 8:20 0.3° C leicht bewölkt
Mo, 06.12. 8:10 0.3° C bewölkt
Mo, 06.12. 8:00 0.3° C bedeckt
Mo, 06.12. 7:50 0.3° C bedeckt
Mo, 06.12. 7:40 0.2° C bedeckt
Mo, 06.12. 7:30 0.1° C bedeckt
Mo, 06.12. 7:00 -0.3° C Nebel
Mo, 06.12. 6:30 -1.5° C Nebel
Mo, 06.12. 6:00 -1.6° C Nebel
Mo, 06.12. 5:30 -1.3° C Nebel
Ortszeit Relative Feuchte Sichtweite
Mo, 06.12. 7:00 99% 6 km
Mo, 06.12. 1:00 100% 1.7 km
So, 05.12. 19:00 95% 4.1 km
So, 05.12. 13:00 95% 9 km
So, 05.12. 7:00 97% 4.6 km
So, 05.12. 1:00 97% 1.6 km
Sa, 04.12. 19:00 89% 26 km
Sa, 04.12. 13:00 94% 8 km
Ortszeit Relative Feuchte Sichtweite
Mo, 06.12. 8:30 94% 21 km
Mo, 06.12. 8:20 94% -
Mo, 06.12. 8:10 94% -
Mo, 06.12. 8:00 94% 12 km
Mo, 06.12. 7:50 94% -
Mo, 06.12. 7:40 95% -
Mo, 06.12. 7:30 98% 8 km
Mo, 06.12. 7:00 99% 6 km
Mo, 06.12. 6:30 99% 0.6 km
Mo, 06.12. 6:00 96% 0.2 km
Mo, 06.12. 5:30 100% 100 m
Ortszeit Niederschlagsmenge Niederschlagsart
Mo, 06.12. 7:00 0.3 l/m2 in 12 Std. -
Mo, 06.12. 1:00 0.3 l/m2 in 6 Std. Schnee, Regen
So, 05.12. 19:00 4 l/m2 in 12 Std. Schnee, Regen
So, 05.12. 13:00 1 l/m2 in 6 Std. Schnee, Regen
So, 05.12. 7:00 7 l/m2 in 12 Std. Schnee, Regen
So, 05.12. 1:00 6 l/m2 in 6 Std. Schnee, Regen
Sa, 04.12. 19:00 0.0 l/m2 in 12 Std. -
Sa, 04.12. 13:00 0.0 l/m2 in 6 Std. -
Ortszeit Niederschlagsmenge Niederschlagsart
Mo, 06.12. 8:30 0.0 l/m2 in 1 Std. -
Mo, 06.12. 8:20 keine Meldung -
Mo, 06.12. 8:10 keine Meldung -
Mo, 06.12. 8:00 0.0 l/m2 in 1 Std. -
Mo, 06.12. 7:50 keine Meldung -
Mo, 06.12. 7:40 keine Meldung -
Mo, 06.12. 7:30 0.0 l/m2 in 1 Std. -
Mo, 06.12. 7:00 0.0 l/m2 in 1 Std. -
Mo, 06.12. 6:30 0.0 l/m2 in 1 Std. -
Mo, 06.12. 6:00 0.0 l/m2 in 1 Std. -
Mo, 06.12. 5:30 0.0 l/m2 in 1 Std. -
Ortszeit Stärke Spitze Richtung
km/h Bft. km/h Grad Sektor
Mo, 06.12. 7:00 4 1 7 110° O
Mo, 06.12. 1:00 0 0 25 - -
So, 05.12. 19:00 9 2 24 70° O
So, 05.12. 13:00 11 2 22 80° O
So, 05.12. 7:00 13 3 26 100° O
So, 05.12. 1:00 11 2 29 80° O
Sa, 04.12. 19:00 11 2 22 110° O
Sa, 04.12. 13:00 9 2 15 130° SO
Ortszeit Stärke Spitze Richtung
km/h Bft. km/h Grad Sektor
Mo, 06.12. 8:30 11 2 18 100° O
Mo, 06.12. 8:20 11 2 - 100° O
Mo, 06.12. 8:10 9 2 - 100° O
Mo, 06.12. 8:00 9 2 15 110° O
Mo, 06.12. 7:50 9 2 - 110° O
Mo, 06.12. 7:40 9 2 - 110° O
Mo, 06.12. 7:30 4 1 7 110° O
Mo, 06.12. 7:00 4 1 7 110° O
Mo, 06.12. 6:30 2 1 4 360° N
Mo, 06.12. 6:00 0 0 4 - -
Mo, 06.12. 5:30 0 0 4 - -
Ortszeit Untergrenze Bedeckung Gattung
total tief tief mittel hoch
Mo, 06.12. 7:00 1230 m 8/8 8/8 - - -
Mo, 06.12. 1:00 720 m 7/8 7/8 - - -
So, 05.12. 19:00 180 m 7/8 7/8 - - -
So, 05.12. 13:00 180 m 8/8 8/8 - - -
So, 05.12. 7:00 90 m 8/8 8/8 - - -
So, 05.12. 1:00 120 m 8/8 8/8 - - -
Sa, 04.12. 19:00 330 m 8/8 8/8 - - -
Sa, 04.12. 13:00 150 m 8/8 8/8 - - -
Ortszeit Bedeckungsgrad in Achtel und Wolkenuntergrenze
Mo, 06.12. 8:30 4(1800m)
Mo, 06.12. 8:20 4(1800m)
Mo, 06.12. 8:10 7(1800m)
Mo, 06.12. 8:00 8(1800m)
Mo, 06.12. 7:50 8(1800m)
Mo, 06.12. 7:40 8(1800m)
Mo, 06.12. 7:30 1(1170m) 8(1800m)
Mo, 06.12. 7:00 2(1230m) 8(1800m)
Mo, 06.12. 6:30 2(1320m) 8(1800m)
Mo, 06.12. 6:00 4(<30m) 5(1800m)
Mo, 06.12. 5:30 2(<30m) 4(1800m)
Ortszeit Luftdruck NN (hPa) Tendenz (hPa in 3 Std.)
Mo, 06.12. 7:00 1016 + 1,5
Mo, 06.12. 1:00 1014 + 1,6
So, 05.12. 19:00 1010 + 2,5
So, 05.12. 13:00 1006 + 2,2
So, 05.12. 7:00 1001 + 1,9
So, 05.12. 1:00 998 + 1,0
Sa, 04.12. 19:00 997 + 0,3
Sa, 04.12. 13:00 998 - 1,3
Ortszeit Luftdruck NN (hPa) Tendenz (hPa in 3 Std.)
Mo, 06.12. 8:30 1017 + 1,6
Mo, 06.12. 8:20 1017 keine Meldung
Mo, 06.12. 8:10 1017 keine Meldung
Mo, 06.12. 8:00 1017 + 1,6
Mo, 06.12. 7:50 1017 keine Meldung
Mo, 06.12. 7:40 1017 keine Meldung
Mo, 06.12. 7:30 1016 + 1,6
Mo, 06.12. 7:00 1016 + 1,5
Mo, 06.12. 6:30 1016 + 1,2
Mo, 06.12. 6:00 1016 + 1,0
Mo, 06.12. 5:30 1015 + 0,8
Ortszeit Schneehöhe (cm)
Mo, 06.12. 7:00 0
Mo, 06.12. 1:00 0
So, 05.12. 19:00 0
So, 05.12. 13:00 0
So, 05.12. 7:00 0
So, 05.12. 1:00 0
Sa, 04.12. 19:00 0
Sa, 04.12. 13:00 0
Ortszeit Schneehöhe (cm)
Mo, 06.12. 8:30 0
Mo, 06.12. 8:20 0
Mo, 06.12. 8:10 0
Mo, 06.12. 8:00 0
Mo, 06.12. 7:50 0
Mo, 06.12. 7:40 0
Mo, 06.12. 7:30 0
Mo, 06.12. 7:00 0
Mo, 06.12. 6:30 0
Mo, 06.12. 6:00 0
Mo, 06.12. 5:30 0
Link zu dieser Seite / Seite empfehlen

Das Wetter in ...